TimeCST,TemperatureF,Dew PointF,Humidity,Sea Level PressureIn,VisibilityMPH,Wind Direction,Wind SpeedMPH,Gust SpeedMPH,PrecipitationIn,Events,Conditions,WindDirDegrees,DateUTC
12:15 AM,50.0,36.7,60,29.94,10.0,NNW,13.8,20.7,N/A,,Clear,330,2012-12-04 06:15:00
12:35 AM,49.6,35.6,59,29.95,10.0,NW,15.0,-,N/A,,Clear,320,2012-12-04 06:35:00
12:55 AM,49.6,34.9,57,29.96,10.0,NW,11.5,19.6,N/A,,Clear,320,2012-12-04 06:55:00
1:15 AM,49.1,34.7,58,29.97,10.0,NW,10.4,-,N/A,,Clear,320,2012-12-04 07:15:00
1:35 AM,48.2,34.7,60,29.98,10.0,NW,6.9,-,N/A,,Clear,320,2012-12-04 07:35:00
1:55 AM,48.2,34.7,60,29.99,10.0,NW,8.1,-,N/A,,Clear,320,2012-12-04 07:55:00
2:15 AM,48.0,34.7,60,30.00,10.0,NNW,5.8,-,N/A,,Clear,330,2012-12-04 08:15:00
2:35 AM,47.5,34.5,61,30.00,10.0,NW,5.8,-,N/A,,Clear,320,2012-12-04 08:35:00
2:55 AM,46.8,34.5,62,30.01,10.0,NW,4.6,-,N/A,,Clear,320,2012-12-04 08:55:00
3:15 AM,47.1,34.9,62,30.01,10.0,WNW,4.6,-,N/A,,Clear,300,2012-12-04 09:15:00
3:35 AM,47.3,35.2,63,30.02,10.0,Calm,Calm,-,N/A,,Clear,0,2012-12-04 09:35:00
3:55 AM,46.2,36.3,68,30.04,10.0,Calm,Calm,-,N/A,,Clear,0,2012-12-04 09:55:00
4:15 AM,45.1,35.6,69,30.04,10.0,SSW,3.5,-,N/A,,Clear,200,2012-12-04 10:15:00
4:35 AM,42.4,35.4,76,30.06,10.0,South,4.6,-,N/A,,Clear,180,2012-12-04 10:35:00
4:55 AM,41.2,35.6,81,30.07,10.0,South,5.8,-,N/A,,Clear,190,2012-12-04 10:55:00
5:15 AM,40.5,36.1,85,30.07,10.0,SW,4.6,-,N/A,,Clear,220,2012-12-04 11:15:00
5:35 AM,40.8,36.5,85,30.08,10.0,SW,3.5,-,N/A,,Clear,230,2012-12-04 11:35:00
5:55 AM,40.5,35.6,83,30.09,10.0,Calm,Calm,-,N/A,,Clear,0,2012-12-04 11:55:00
6:15 AM,40.5,36.0,84,30.09,10.0,Calm,Calm,-,N/A,,Clear,0,2012-12-04 12:15:00
6:35 AM,38.5,35.4,89,30.10,10.0,Calm,Calm,-,N/A,,Clear,0,2012-12-04 12:35:00
6:55 AM,37.4,34.5,89,30.10,10.0,Calm,Calm,-,N/A,,Clear,0,2012-12-04 12:55:00
7:15 AM,36.7,34.3,91,30.11,10.0,Calm,Calm,-,N/A,,Clear,0,2012-12-04 13:15:00
7:35 AM,36.1,34.3,93,30.12,10.0,Calm,Calm,-,N/A,,Clear,0,2012-12-04 13:35:00
7:55 AM,34.2,32.5,94,30.12,10.0,Calm,Calm,-,N/A,,Clear,0,2012-12-04 13:55:00
8:15 AM,37.2,33.8,87,30.13,10.0,SW,4.6,-,N/A,,Clear,230,2012-12-04 14:15:00
8:35 AM,41.7,34.0,74,30.13,10.0,WSW,4.6,-,N/A,,Clear,240,2012-12-04 14:35:00
8:55 AM,42.1,34.5,75,30.13,10.0,WSW,3.5,-,N/A,,Clear,250,2012-12-04 14:55:00
9:15 AM,42.8,34.3,72,30.14,10.0,Calm,Calm,-,N/A,,Clear,0,2012-12-04 15:15:00
9:35 AM,44.1,33.8,67,30.15,10.0,West,4.6,-,N/A,,Clear,270,2012-12-04 15:35:00
9:55 AM,44.6,33.8,66,30.15,10.0,West,4.6,-,N/A,,Clear,280,2012-12-04 15:55:00
10:15 AM,45.5,34.2,65,30.15,10.0,West,4.6,-,N/A,,Clear,280,2012-12-04 16:15:00
10:35 AM,46.8,34.9,63,30.15,10.0,Calm,Calm,-,N/A,,Clear,0,2012-12-04 16:35:00
10:55 AM,49.3,34.9,58,30.15,10.0,West,4.6,-,N/A,,Clear,270,2012-12-04 16:55:00
11:15 AM,51.8,34.3,51,30.14,10.0,WSW,5.8,-,N/A,,Clear,240,2012-12-04 17:15:00
11:35 AM,53.4,33.4,47,30.13,10.0,WSW,5.8,-,N/A,,Clear,250,2012-12-04 17:35:00
12:15 PM,55.6,32.4,41,30.12,10.0,SW,5.8,-,N/A,,Clear,230,2012-12-04 18:15:00
12:35 PM,57.0,30.9,37,30.12,10.0,West,10.4,-,N/A,,Clear,270,2012-12-04 18:35:00
12:55 PM,58.1,29.1,33,30.11,10.0,West,9.2,-,N/A,,Clear,270,2012-12-04 18:55:00
1:15 PM,58.8,28.2,31,30.11,10.0,West,10.4,-,N/A,,Clear,270,2012-12-04 19:15:00
1:35 PM,59.2,28.8,31,30.11,10.0,West,9.2,-,N/A,,Clear,270,2012-12-04 19:35:00
1:55 PM,58.5,28.4,32,30.11,10.0,WNW,13.8,18.4,N/A,,Clear,290,2012-12-04 19:55:00
2:15 PM,58.3,28.6,32,30.12,10.0,NW,11.5,18.4,N/A,,Clear,310,2012-12-04 20:15:00
2:35 PM,57.2,29.1,34,30.13,10.0,WNW,12.7,19.6,N/A,,Clear,290,2012-12-04 20:35:00
2:55 PM,56.7,31.6,39,30.13,10.0,WNW,6.9,-,N/A,,Clear,290,2012-12-04 20:55:00
3:15 PM,55.8,30.6,38,30.14,10.0,WNW,10.4,16.1,N/A,,Clear,290,2012-12-04 21:15:00
3:35 PM,55.2,30.9,40,30.15,10.0,WNW,8.1,-,N/A,,Clear,290,2012-12-04 21:35:00
3:55 PM,54.1,31.6,42,30.16,10.0,West,10.4,-,N/A,,Clear,280,2012-12-04 21:55:00
4:15 PM,53.2,32.0,44,30.16,10.0,West,6.9,-,N/A,,Clear,270,2012-12-04 22:15:00
4:35 PM,52.2,32.0,46,30.17,10.0,West,6.9,-,N/A,,Clear,280,2012-12-04 22:35:00
4:55 PM,51.3,32.0,48,30.18,10.0,WNW,8.1,-,N/A,,Clear,290,2012-12-04 22:55:00
5:15 PM,50.7,32.0,49,30.18,10.0,West,9.2,-,N/A,,Clear,280,2012-12-04 23:15:00
5:35 PM,50.7,31.8,48,30.19,10.0,WNW,9.2,-,N/A,,Clear,290,2012-12-04 23:35:00
5:55 PM,49.8,32.0,50,30.20,10.0,WNW,10.4,-,N/A,,Clear,290,2012-12-04 23:55:00
6:15 PM,48.6,32.2,53,30.20,10.0,WNW,9.2,-,N/A,,Clear,290,2012-12-05 00:15:00
6:35 PM,47.8,32.0,54,30.21,10.0,WNW,9.2,-,N/A,,Clear,300,2012-12-05 00:35:00
6:55 PM,47.3,32.0,55,30.21,10.0,WNW,9.2,-,N/A,,Clear,300,2012-12-05 00:55:00
7:15 PM,46.2,32.0,58,30.21,10.0,WNW,9.2,-,N/A,,Clear,300,2012-12-05 01:15:00
7:35 PM,45.3,31.8,59,30.22,10.0,WNW,9.2,-,N/A,,Clear,290,2012-12-05 01:35:00
7:55 PM,44.6,31.6,60,30.23,10.0,NW,6.9,-,N/A,,Clear,310,2012-12-05 01:55:00
8:15 PM,43.3,31.6,63,30.23,10.0,NW,8.1,-,N/A,,Clear,310,2012-12-05 02:15:00
8:35 PM,43.2,31.3,63,30.24,10.0,WNW,8.1,-,N/A,,Clear,300,2012-12-05 02:35:00
8:55 PM,41.7,30.9,66,30.24,10.0,WNW,5.8,-,N/A,,Clear,300,2012-12-05 02:55:00
9:15 PM,41.0,30.6,66,30.26,10.0,WNW,5.8,-,N/A,,Clear,300,2012-12-05 03:15:00
9:35 PM,39.7,28.6,64,30.26,10.0,NW,6.9,-,N/A,,Clear,320,2012-12-05 03:35:00
9:55 PM,38.7,27.5,64,30.27,10.0,NNW,6.9,-,N/A,,Clear,330,2012-12-05 03:55:00
10:15 PM,39.2,26.8,61,30.27,10.0,NNW,6.9,-,N/A,,Clear,330,2012-12-05 04:15:00
10:35 PM,38.5,25.7,60,30.29,10.0,NNW,3.5,-,N/A,,Clear,340,2012-12-05 04:35:00
10:55 PM,38.3,24.8,58,30.31,10.0,NNW,4.6,-,N/A,,Clear,330,2012-12-05 04:55:00
11:15 PM,36.5,24.4,62,30.32,10.0,North,8.1,-,N/A,,Clear,360,2012-12-05 05:15:00
11:35 PM,35.8,24.4,63,30.33,10.0,North,8.1,-,N/A,,Clear,350,2012-12-05 05:35:00
11:55 PM,35.6,23.5,62,30.33,10.0,NNW,8.1,-,N/A,,Clear,340,2012-12-05 05:55:00